Location: Dal�� Lhota
(48.7500°N, 14.0167°E)
Time: 23:18:48
(UTC+00:00)

Ariane Rocket - Pass Details

Date: 24 September 2020
Orbit: 760 x 769 km, 98.7° (Epoch: 25 October)

Event Time Altitude Azimuth Distance (km) Brightness Sun altitude
Exits shadow 17:47:53 - 131° (SE) 2,573 5.2 -9.2°
Reaches altitude 10° 17:48:38 10° 128° (SE) 2,300 4.9 -9.3°
Maximum altitude 17:53:10 34° 64° (ENE) 1,239 3.7 -10.1°
Drops below altitude 10° 17:57:44 10° 1° (N) 2,319 5.6 -10.8°
Sets 18:00:13 0° 352° (N) 3,251 6.5 -11.2°
